Year,Month,Day,Hour,Minute,Value (Times are PST for windspeed in km/hr)
2021,01,13,00,00,35.10
2021,01,13,00,01,33.70
2021,01,13,00,02,45.70
2021,01,13,00,03,49.80
2021,01,13,00,04,45.70
2021,01,13,00,05,39.50
2021,01,13,00,06,41.70
2021,01,13,00,07,33.00
2021,01,13,00,08,36.40
2021,01,13,00,09,46.90
2021,01,13,00,10,40.10
2021,01,13,00,11,43.20
2021,01,13,00,12,44.00
2021,01,13,00,13,32.60
2021,01,13,00,14,33.90
2021,01,13,00,15,31.00
2021,01,13,00,16,33.00
2021,01,13,00,17,42.60
2021,01,13,00,18,48.10
2021,01,13,00,19,43.90
2021,01,13,00,20,40.10
2021,01,13,00,21,45.60
2021,01,13,00,22,39.90
2021,01,13,00,23,47.50
2021,01,13,00,24,40.50
2021,01,13,00,25,29.00
2021,01,13,00,26,30.50
2021,01,13,00,27,29.40
2021,01,13,00,28,32.80
2021,01,13,00,29,29.20
2021,01,13,00,30,32.00
2021,01,13,00,31,32.90
2021,01,13,00,32,32.10
2021,01,13,00,33,28.10
2021,01,13,00,34,49.50
2021,01,13,00,35,41.00
2021,01,13,00,36,47.50
2021,01,13,00,37,33.40
2021,01,13,00,38,30.60
2021,01,13,00,39,39.20
2021,01,13,00,40,32.90
2021,01,13,00,41,50.80
2021,01,13,00,42,38.50
2021,01,13,00,43,33.20
2021,01,13,00,44,35.30
2021,01,13,00,45,32.80
2021,01,13,00,46,41.60
2021,01,13,00,47,41.90
2021,01,13,00,48,36.00
2021,01,13,00,49,45.60
2021,01,13,00,50,40.10
2021,01,13,00,51,25.60
2021,01,13,00,52,43.20
2021,01,13,00,53,36.30
2021,01,13,00,54,43.20
2021,01,13,00,55,31.80
2021,01,13,00,56,35.10
2021,01,13,00,57,35.40
2021,01,13,00,58,35.40
2021,01,13,00,59,35.40
2021,01,13,01,00,35.40
2021,01,13,01,01,35.40
2021,01,13,01,02,35.40
2021,01,13,01,03,38.50
2021,01,13,01,04,36.20
2021,01,13,01,05,36.20
2021,01,13,01,06,32.60
2021,01,13,01,07,34.10
2021,01,13,01,08,35.80
2021,01,13,01,09,40.40
2021,01,13,01,10,38.80
2021,01,13,01,11,31.00
2021,01,13,01,12,44.50
2021,01,13,01,13,27.80
2021,01,13,01,14,38.00
2021,01,13,01,15,34.80
2021,01,13,01,16,36.70
2021,01,13,01,17,48.70
2021,01,13,01,18,37.90
2021,01,13,01,19,29.10
2021,01,13,01,20,27.90
2021,01,13,01,21,43.60
2021,01,13,01,22,30.50
2021,01,13,01,23,29.40
2021,01,13,01,24,42.20
2021,01,13,01,25,31.50
2021,01,13,01,26,32.80
2021,01,13,01,27,34.10
2021,01,13,01,28,28.80
2021,01,13,01,29,23.80
2021,01,13,01,30,30.30
2021,01,13,01,31,26.30
2021,01,13,01,32,28.50
2021,01,13,01,33,28.20
2021,01,13,01,34,26.60
2021,01,13,01,35,28.20
2021,01,13,01,36,24.80
2021,01,13,01,37,24.90
2021,01,13,01,38,28.60
2021,01,13,01,39,34.20
2021,01,13,01,40,27.40
2021,01,13,01,41,33.90
2021,01,13,01,42,26.70
2021,01,13,01,43,34.20
2021,01,13,01,44,33.90
2021,01,13,01,45,35.30
2021,01,13,01,46,37.70
2021,01,13,01,47,30.60
2021,01,13,01,48,31.60
2021,01,13,01,49,31.40
2021,01,13,01,50,39.50
2021,01,13,01,51,36.80
2021,01,13,01,52,37.30
2021,01,13,01,53,26.10
2021,01,13,01,54,40.10
2021,01,13,01,55,37.90
2021,01,13,01,56,27.60
2021,01,13,01,57,27.20
2021,01,13,01,58,31.00
2021,01,13,01,59,42.10
2021,01,13,02,00,43.70
2021,01,13,02,01,46.60
2021,01,13,02,02,34.50
2021,01,13,02,03,32.20
2021,01,13,02,04,39.30
2021,01,13,02,05,32.20
2021,01,13,02,06,30.50
2021,01,13,02,07,47.40
2021,01,13,02,08,57.20
2021,01,13,02,09,47.60
2021,01,13,02,10,38.90
2021,01,13,02,11,41.40
2021,01,13,02,12,38.60
2021,01,13,02,13,38.20
2021,01,13,02,14,34.10
2021,01,13,02,15,34.00
2021,01,13,02,16,35.50
2021,01,13,02,17,34.50
2021,01,13,02,18,36.30
2021,01,13,02,19,28.70
2021,01,13,02,20,31.80
2021,01,13,02,21,29.70
2021,01,13,02,22,23.00
2021,01,13,02,23,31.20
2021,01,13,02,24,32.50
2021,01,13,02,25,37.00
2021,01,13,02,26,23.60
2021,01,13,02,27,30.00
2021,01,13,02,28,28.00
2021,01,13,02,29,34.80
2021,01,13,02,30,26.70
2021,01,13,02,31,18.90
2021,01,13,02,32,29.80
2021,01,13,02,33,30.40
2021,01,13,02,34,22.60
2021,01,13,02,35,31.90
2021,01,13,02,36,33.40
2021,01,13,02,37,29.70
2021,01,13,02,38,26.20
2021,01,13,02,39,31.20
2021,01,13,02,40,33.20
2021,01,13,02,41,31.20
2021,01,13,02,42,30.00
2021,01,13,02,43,29.40
2021,01,13,02,44,21.80
2021,01,13,02,45,23.40
2021,01,13,02,46,25.60
2021,01,13,02,47,22.50
2021,01,13,02,48,34.80
2021,01,13,02,49,35.50
2021,01,13,02,50,25.40
2021,01,13,02,51,30.90
2021,01,13,02,52,22.60
2021,01,13,02,53,18.90
2021,01,13,02,54,13.90
2021,01,13,02,55,26.50
2021,01,13,02,56,34.60
2021,01,13,02,57,30.50
2021,01,13,02,58,26.60
2021,01,13,02,59,18.20
2021,01,13,03,00,28.00
2021,01,13,03,01,25.10
2021,01,13,03,02,35.60
2021,01,13,03,03,22.60
2021,01,13,03,04,20.40
2021,01,13,03,05,23.90
2021,01,13,03,06,30.90
2021,01,13,03,07,31.40
2021,01,13,03,08,35.10
2021,01,13,03,09,33.40
2021,01,13,03,10,27.60
2021,01,13,03,11,21.40
2021,01,13,03,12,27.80
2021,01,13,03,13,36.20
2021,01,13,03,14,41.70
2021,01,13,03,15,28.40
2021,01,13,03,16,32.40
2021,01,13,03,17,22.40
2021,01,13,03,18,23.60
2021,01,13,03,19,25.40
2021,01,13,03,20,36.10
2021,01,13,03,21,25.90
2021,01,13,03,22,31.70
2021,01,13,03,23,25.20
2021,01,13,03,24,14.20
2021,01,13,03,25,25.10
2021,01,13,03,26,26.00
2021,01,13,03,27,20.10
2021,01,13,03,28,24.90
2021,01,13,03,29,33.90
2021,01,13,03,30,24.30
2021,01,13,03,31,21.10
2021,01,13,03,32,29.40
2021,01,13,03,33,35.50
2021,01,13,03,34,29.00
2021,01,13,03,35,26.40
2021,01,13,03,36,40.50
2021,01,13,03,37,43.10
2021,01,13,03,38,38.70
2021,01,13,03,39,26.90
2021,01,13,03,40,23.30
2021,01,13,03,41,27.10
2021,01,13,03,42,35.80
2021,01,13,03,43,32.60
2021,01,13,03,44,30.00
2021,01,13,03,45,40.50
2021,01,13,03,46,30.80
2021,01,13,03,47,29.00
2021,01,13,03,48,26.80
2021,01,13,03,49,25.20
2021,01,13,03,50,32.60
2021,01,13,03,51,25.10
2021,01,13,03,52,13.50
2021,01,13,03,53,20.00
2021,01,13,03,54,18.60
2021,01,13,03,55,23.70
2021,01,13,03,56,5.90
2021,01,13,03,57,3.00
2021,01,13,03,58,5.20
2021,01,13,03,59,31.00
2021,01,13,04,00,14.00
2021,01,13,04,01,16.80
2021,01,13,04,02,28.00
2021,01,13,04,03,19.30
2021,01,13,04,04,6.90
2021,01,13,04,05,14.20
2021,01,13,04,06,11.20
2021,01,13,04,07,7.80
2021,01,13,04,08,21.50
2021,01,13,04,09,12.50
2021,01,13,04,10,11.60
2021,01,13,04,11,22.40
2021,01,13,04,12,12.20
2021,01,13,04,13,14.60
2021,01,13,04,14,18.40
2021,01,13,04,15,7.10
2021,01,13,04,16,20.70
2021,01,13,04,17,24.90
2021,01,13,04,18,9.70
2021,01,13,04,19,10.50
2021,01,13,04,20,18.60
2021,01,13,04,21,25.90
2021,01,13,04,22,25.70
2021,01,13,04,23,16.20
2021,01,13,04,24,6.40
2021,01,13,04,25,2.30
2021,01,13,04,26,3.60
2021,01,13,04,27,8.30
2021,01,13,04,28,3.00
2021,01,13,04,29,22.00
2021,01,13,04,30,6.40
2021,01,13,04,31,8.00
2021,01,13,04,32,2.80
2021,01,13,04,33,11.10
2021,01,13,04,34,1.70
2021,01,13,04,35,0.00
2021,01,13,04,36,0.00
2021,01,13,04,37,0.20
2021,01,13,04,38,0.00
2021,01,13,04,39,4.60
2021,01,13,04,40,11.30
2021,01,13,04,41,21.30
2021,01,13,04,42,9.50
2021,01,13,04,43,22.40
2021,01,13,04,44,19.00
2021,01,13,04,45,20.20
2021,01,13,04,46,5.30
2021,01,13,04,47,22.60
2021,01,13,04,48,20.60
2021,01,13,04,49,23.90
2021,01,13,04,50,14.80
2021,01,13,04,51,10.30
2021,01,13,04,52,28.10
2021,01,13,04,53,8.40
2021,01,13,04,54,20.50
2021,01,13,04,55,18.10
2021,01,13,04,56,24.70
2021,01,13,04,57,24.60
2021,01,13,04,58,32.80
2021,01,13,04,59,27.60
2021,01,13,05,00,39.60
2021,01,13,05,01,33.20
2021,01,13,05,02,24.30
2021,01,13,05,03,28.60
2021,01,13,05,04,28.10
2021,01,13,05,05,40.20
2021,01,13,05,06,32.20
2021,01,13,05,07,19.30
2021,01,13,05,08,16.40
2021,01,13,05,09,16.50
2021,01,13,05,10,20.50
2021,01,13,05,11,19.80
2021,01,13,05,12,24.40
2021,01,13,05,13,24.60
2021,01,13,05,14,40.90
2021,01,13,05,15,32.90
2021,01,13,05,16,23.30
2021,01,13,05,17,12.20
2021,01,13,05,18,16.90
2021,01,13,05,19,22.60
2021,01,13,05,20,29.60
2021,01,13,05,21,19.60
2021,01,13,05,22,21.50
2021,01,13,05,23,23.90
2021,01,13,05,24,31.20
2021,01,13,05,25,27.90
2021,01,13,05,26,21.10
2021,01,13,05,27,24.10
2021,01,13,05,28,25.90
2021,01,13,05,29,32.30
2021,01,13,05,30,30.80
2021,01,13,05,31,15.30
2021,01,13,05,32,26.80
2021,01,13,05,33,31.40
2021,01,13,05,34,33.70
2021,01,13,05,35,19.50
2021,01,13,05,36,2.40
2021,01,13,05,37,21.60
2021,01,13,05,38,16.40
2021,01,13,05,39,24.30
2021,01,13,05,40,17.60
2021,01,13,05,41,25.90
2021,01,13,05,42,26.80
2021,01,13,05,43,26.60
2021,01,13,05,44,27.10
2021,01,13,05,45,27.50
2021,01,13,05,46,19.50
2021,01,13,05,47,7.50
2021,01,13,05,48,33.40
2021,01,13,05,49,24.10
2021,01,13,05,50,30.60
2021,01,13,05,51,19.60
2021,01,13,05,52,16.50
2021,01,13,05,53,26.60
2021,01,13,05,54,24.60
2021,01,13,05,55,19.30
2021,01,13,05,56,18.30
2021,01,13,05,57,25.20
2021,01,13,05,58,22.10
2021,01,13,05,59,15.30
2021,01,13,06,00,16.50
2021,01,13,06,01,10.80
2021,01,13,06,02,14.90
2021,01,13,06,03,8.30
2021,01,13,06,04,17.30
2021,01,13,06,05,15.30
2021,01,13,06,06,26.10
2021,01,13,06,07,19.50
2021,01,13,06,08,10.00
2021,01,13,06,09,9.50
2021,01,13,06,10,19.30
2021,01,13,06,11,17.90
2021,01,13,06,12,9.50
2021,01,13,06,13,7.80
2021,01,13,06,14,4.80
2021,01,13,06,15,9.40
2021,01,13,06,16,16.80
2021,01,13,06,17,5.70
2021,01,13,06,18,6.60
2021,01,13,06,19,10.20
2021,01,13,06,20,12.10
2021,01,13,06,21,13.00
2021,01,13,06,22,14.20
2021,01,13,06,23,6.30
2021,01,13,06,24,9.50
2021,01,13,06,25,3.50
2021,01,13,06,26,0.00
2021,01,13,06,27,0.00
2021,01,13,06,28,0.00
2021,01,13,06,29,0.10
2021,01,13,06,30,0.00
2021,01,13,06,31,13.80
2021,01,13,06,32,16.20
2021,01,13,06,33,13.00
2021,01,13,06,34,10.90
2021,01,13,06,35,13.80
2021,01,13,06,36,6.40
2021,01,13,06,37,13.00
2021,01,13,06,38,11.00
2021,01,13,06,39,12.30
2021,01,13,06,40,21.30
2021,01,13,06,41,21.40
2021,01,13,06,42,17.10
2021,01,13,06,43,10.10
2021,01,13,06,44,7.60
2021,01,13,06,45,9.50
2021,01,13,06,46,8.40
2021,01,13,06,47,5.00
2021,01,13,06,48,11.30
2021,01,13,06,49,8.70
2021,01,13,06,50,5.60
2021,01,13,06,51,7.70
2021,01,13,06,52,0.00
2021,01,13,06,53,0.20
2021,01,13,06,54,0.10
2021,01,13,06,55,0.00
2021,01,13,06,56,0.00
2021,01,13,06,57,13.00
2021,01,13,06,58,21.20
2021,01,13,06,59,15.00
2021,01,13,07,00,12.00
2021,01,13,07,01,9.30
2021,01,13,07,02,5.50
2021,01,13,07,03,6.70
2021,01,13,07,04,8.40
2021,01,13,07,05,0.20
2021,01,13,07,06,0.40
2021,01,13,07,07,0.00
2021,01,13,07,08,0.00
2021,01,13,07,09,9.00
2021,01,13,07,10,8.60
2021,01,13,07,11,0.00
2021,01,13,07,12,16.40
2021,01,13,07,13,2.80
2021,01,13,07,14,6.20
2021,01,13,07,15,0.00
2021,01,13,07,16,0.00
2021,01,13,07,17,0.00
2021,01,13,07,18,0.00
2021,01,13,07,19,0.10
2021,01,13,07,20,5.60
2021,01,13,07,21,18.40
2021,01,13,07,22,11.50
2021,01,13,07,23,10.70
2021,01,13,07,24,10.90
2021,01,13,07,25,12.50
2021,01,13,07,26,10.60
2021,01,13,07,27,1.40
2021,01,13,07,28,0.00
2021,01,13,07,29,0.00
2021,01,13,07,30,7.30
2021,01,13,07,31,11.80
2021,01,13,07,32,7.80
2021,01,13,07,33,10.70
2021,01,13,07,34,0.70
2021,01,13,07,35,7.50
2021,01,13,07,36,19.80
2021,01,13,07,37,17.10
2021,01,13,07,38,8.70
2021,01,13,07,39,16.90
2021,01,13,07,40,17.80
2021,01,13,07,41,18.30
2021,01,13,07,42,13.80
2021,01,13,07,43,14.80
2021,01,13,07,44,20.50
2021,01,13,07,45,18.40
2021,01,13,07,46,14.50
2021,01,13,07,47,12.20
2021,01,13,07,48,17.00
2021,01,13,07,49,19.90
2021,01,13,07,50,12.40
2021,01,13,07,51,17.80
2021,01,13,07,52,19.10
2021,01,13,07,53,21.00
2021,01,13,07,54,18.20
2021,01,13,07,55,13.30
2021,01,13,07,56,15.90
2021,01,13,07,57,14.80
2021,01,13,07,58,19.50
2021,01,13,07,59,18.80
2021,01,13,08,00,15.30
2021,01,13,08,01,12.70
2021,01,13,08,02,14.80
2021,01,13,08,03,17.90
2021,01,13,08,04,17.20
2021,01,13,08,05,13.90
2021,01,13,08,06,11.90
2021,01,13,08,07,11.50
2021,01,13,08,08,14.90
2021,01,13,08,09,15.80
2021,01,13,08,10,15.40
2021,01,13,08,11,14.20
2021,01,13,08,12,14.10
2021,01,13,08,13,12.00
2021,01,13,08,14,16.90
2021,01,13,08,15,19.50
2021,01,13,08,16,17.20
2021,01,13,08,17,12.80
2021,01,13,08,18,13.50
2021,01,13,08,19,18.50
2021,01,13,08,20,14.90
2021,01,13,08,21,15.00
2021,01,13,08,22,15.90
2021,01,13,08,23,12.20
2021,01,13,08,24,14.00
2021,01,13,08,25,17.00
2021,01,13,08,26,11.90
2021,01,13,08,27,13.20
2021,01,13,08,28,13.40
2021,01,13,08,29,12.70
2021,01,13,08,30,14.00
2021,01,13,08,31,20.50
2021,01,13,08,32,21.60
2021,01,13,08,33,17.80
2021,01,13,08,34,20.10
2021,01,13,08,35,16.00
2021,01,13,08,36,17.10
2021,01,13,08,37,17.10
2021,01,13,08,38,13.70
2021,01,13,08,39,14.30
2021,01,13,08,40,15.20
2021,01,13,08,41,12.40
2021,01,13,08,42,12.10
2021,01,13,08,43,15.50
2021,01,13,08,44,20.50
2021,01,13,08,45,19.10
2021,01,13,08,46,16.40
2021,01,13,08,47,17.20
2021,01,13,08,48,14.30
2021,01,13,08,49,16.00
2021,01,13,08,50,26.00
2021,01,13,08,51,18.10
2021,01,13,08,52,19.30
2021,01,13,08,53,15.40
2021,01,13,08,54,14.80
2021,01,13,08,55,15.30
2021,01,13,08,56,17.50
2021,01,13,08,57,16.40
2021,01,13,08,58,18.70
2021,01,13,08,59,22.60
2021,01,13,09,00,17.90
2021,01,13,09,01,25.60
2021,01,13,09,02,22.50
2021,01,13,09,03,19.00
2021,01,13,09,04,16.00
2021,01,13,09,05,20.10
2021,01,13,09,06,17.70
2021,01,13,09,07,14.90
2021,01,13,09,08,18.10
2021,01,13,09,09,17.20
2021,01,13,09,10,20.30
2021,01,13,09,11,17.50
2021,01,13,09,12,11.10
2021,01,13,09,13,17.30
2021,01,13,09,14,23.60
2021,01,13,09,15,19.30
2021,01,13,09,16,13.40
2021,01,13,09,17,15.90
2021,01,13,09,18,21.80
2021,01,13,09,19,17.80
2021,01,13,09,20,18.60
2021,01,13,09,21,19.10
2021,01,13,09,22,23.30
2021,01,13,09,23,25.50
2021,01,13,09,24,23.80
2021,01,13,09,25,15.40
2021,01,13,09,26,20.60
2021,01,13,09,27,24.40
2021,01,13,09,28,24.90
2021,01,13,09,29,22.40
2021,01,13,09,30,10.10
2021,01,13,09,31,17.10
2021,01,13,09,32,18.30
2021,01,13,09,33,18.60
2021,01,13,09,34,16.40
2021,01,13,09,35,15.10
2021,01,13,09,36,12.90
2021,01,13,09,37,13.20
2021,01,13,09,38,16.70
2021,01,13,09,39,14.10
2021,01,13,09,40,18.80
2021,01,13,09,41,25.80
2021,01,13,09,42,20.30
2021,01,13,09,43,16.90
2021,01,13,09,44,10.90
2021,01,13,09,45,18.30
2021,01,13,09,46,18.50
2021,01,13,09,47,16.90
2021,01,13,09,48,16.90
2021,01,13,09,49,10.50
2021,01,13,09,50,14.70
2021,01,13,09,51,11.80
2021,01,13,09,52,14.50
2021,01,13,09,53,16.40
2021,01,13,09,54,14.30
2021,01,13,09,55,14.00
2021,01,13,09,56,16.20
2021,01,13,09,57,14.40
2021,01,13,09,58,14.40
2021,01,13,09,59,3.70
2021,01,13,10,00,4.30
2021,01,13,10,01,6.40
2021,01,13,10,02,7.50
2021,01,13,10,03,10.10
2021,01,13,10,04,5.70
2021,01,13,10,05,15.80
2021,01,13,10,06,13.90
2021,01,13,10,07,7.20
2021,01,13,10,08,14.90
2021,01,13,10,09,7.60
2021,01,13,10,10,15.70
2021,01,13,10,11,9.80
2021,01,13,10,12,2.60
2021,01,13,10,13,13.70
2021,01,13,10,14,8.90
2021,01,13,10,15,9.80
2021,01,13,10,16,10.60
2021,01,13,10,17,2.80
2021,01,13,10,18,13.50
2021,01,13,10,19,14.30
2021,01,13,10,20,13.40
2021,01,13,10,21,10.60
2021,01,13,10,22,6.20
2021,01,13,10,23,2.50
2021,01,13,10,24,4.20
2021,01,13,10,25,4.90
2021,01,13,10,26,0.10
2021,01,13,10,27,0.20
2021,01,13,10,28,0.10
2021,01,13,10,29,0.00
2021,01,13,10,30,0.00
2021,01,13,10,31,0.90
2021,01,13,10,32,2.10
2021,01,13,10,33,1.10
2021,01,13,10,34,1.70
2021,01,13,10,35,5.30
2021,01,13,10,36,3.40
2021,01,13,10,37,4.00
2021,01,13,10,38,4.60
2021,01,13,10,39,9.20
2021,01,13,10,40,9.20
2021,01,13,10,41,7.20
2021,01,13,10,42,0.60
2021,01,13,10,43,6.80
2021,01,13,10,44,10.30
2021,01,13,10,45,5.40
2021,01,13,10,46,8.20
2021,01,13,10,47,6.80
2021,01,13,10,48,6.10
2021,01,13,10,49,7.80
2021,01,13,10,50,10.50
2021,01,13,10,51,12.50
2021,01,13,10,52,14.40
2021,01,13,10,53,13.90
2021,01,13,10,54,16.60
2021,01,13,10,55,19.00
2021,01,13,10,56,19.90
2021,01,13,10,57,15.90
2021,01,13,10,58,11.30
2021,01,13,10,59,16.70
2021,01,13,11,00,26.30
2021,01,13,11,01,23.90
2021,01,13,11,02,28.10
2021,01,13,11,03,16.80
2021,01,13,11,04,22.60
2021,01,13,11,05,20.20
2021,01,13,11,06,9.30
2021,01,13,11,07,12.00
2021,01,13,11,08,13.90
2021,01,13,11,09,19.10
2021,01,13,11,10,16.10
2021,01,13,11,11,12.60
2021,01,13,11,12,10.60
2021,01,13,11,13,7.90
2021,01,13,11,14,7.50
2021,01,13,11,15,4.30
2021,01,13,11,16,5.40
2021,01,13,11,17,4.60
2021,01,13,11,18,11.40
2021,01,13,11,19,13.80
2021,01,13,11,20,11.70
2021,01,13,11,21,11.70
2021,01,13,11,22,11.50
2021,01,13,11,23,11.70
2021,01,13,11,24,7.50
2021,01,13,11,25,3.80
2021,01,13,11,26,4.00
2021,01,13,11,27,3.70
2021,01,13,11,28,5.20
2021,01,13,11,29,4.10
2021,01,13,11,30,10.80
2021,01,13,11,31,15.10
2021,01,13,11,32,11.30
2021,01,13,11,33,6.00
2021,01,13,11,34,7.90
2021,01,13,11,35,0.00
2021,01,13,11,36,8.50
2021,01,13,11,37,7.80
2021,01,13,11,38,14.80
2021,01,13,11,39,5.10
2021,01,13,11,40,9.00
2021,01,13,11,41,11.20
2021,01,13,11,42,6.50
2021,01,13,11,43,8.00
2021,01,13,11,44,9.40
2021,01,13,11,45,13.30
2021,01,13,11,46,16.80
2021,01,13,11,47,14.60
2021,01,13,11,48,9.80
2021,01,13,11,49,9.50
2021,01,13,11,50,7.80
2021,01,13,11,51,10.60
2021,01,13,11,52,10.10
2021,01,13,11,53,11.80
2021,01,13,11,54,7.60
2021,01,13,11,55,10.20
2021,01,13,11,56,9.90
2021,01,13,11,57,7.90
2021,01,13,11,58,10.90
2021,01,13,11,59,3.70
2021,01,13,12,00,9.70
2021,01,13,12,01,8.20
2021,01,13,12,02,2.30
2021,01,13,12,03,0.00
2021,01,13,12,04,0.00
2021,01,13,12,05,0.00
2021,01,13,12,06,0.00
2021,01,13,12,07,0.00
2021,01,13,12,08,0.00
2021,01,13,12,09,0.00
2021,01,13,12,10,0.00
2021,01,13,12,11,9.90
2021,01,13,12,12,6.80
2021,01,13,12,13,5.00
2021,01,13,12,14,2.60
2021,01,13,12,15,4.90
2021,01,13,12,16,9.40
2021,01,13,12,17,3.80
2021,01,13,12,18,9.10
2021,01,13,12,19,10.00
2021,01,13,12,20,11.40
2021,01,13,12,21,5.10
2021,01,13,12,22,10.40
2021,01,13,12,23,6.50
2021,01,13,12,24,5.80
2021,01,13,12,25,7.10
2021,01,13,12,26,12.80
2021,01,13,12,27,7.70
2021,01,13,12,28,4.20
2021,01,13,12,29,3.80
2021,01,13,12,30,4.30
2021,01,13,12,31,0.00
2021,01,13,12,32,0.00
2021,01,13,12,33,0.70
2021,01,13,12,34,5.00
2021,01,13,12,35,5.00
2021,01,13,12,36,4.70
2021,01,13,12,37,0.00
2021,01,13,12,38,0.00
2021,01,13,12,39,3.70
2021,01,13,12,40,11.40
2021,01,13,12,41,3.30
2021,01,13,12,42,0.00
2021,01,13,12,43,4.70
2021,01,13,12,44,3.70
2021,01,13,12,45,1.30
2021,01,13,12,46,0.00
2021,01,13,12,47,0.10
2021,01,13,12,48,0.30
2021,01,13,12,49,0.00
2021,01,13,12,50,2.20
2021,01,13,12,51,0.10
2021,01,13,12,52,0.60
2021,01,13,12,53,0.00
2021,01,13,12,54,0.00
2021,01,13,12,55,0.00
2021,01,13,12,56,0.70
2021,01,13,12,57,11.70
2021,01,13,12,58,5.20
2021,01,13,12,59,4.00
2021,01,13,13,00,7.90
2021,01,13,13,01,4.40
2021,01,13,13,02,0.50
2021,01,13,13,03,9.40
2021,01,13,13,04,10.50
2021,01,13,13,05,4.50
2021,01,13,13,06,4.10
2021,01,13,13,07,10.60
2021,01,13,13,08,16.00
2021,01,13,13,09,14.50
2021,01,13,13,10,10.20
2021,01,13,13,11,14.30
2021,01,13,13,12,13.70
2021,01,13,13,13,16.70
2021,01,13,13,14,14.30
2021,01,13,13,15,15.00
2021,01,13,13,16,8.70
2021,01,13,13,17,12.30
2021,01,13,13,18,9.30
2021,01,13,13,19,11.70
2021,01,13,13,20,18.00
2021,01,13,13,21,17.70
2021,01,13,13,22,20.00
2021,01,13,13,23,14.80
2021,01,13,13,24,18.40
2021,01,13,13,25,19.40
2021,01,13,13,26,12.70
2021,01,13,13,27,8.60
2021,01,13,13,28,15.50
2021,01,13,13,29,15.40
2021,01,13,13,30,21.00
2021,01,13,13,31,24.30
2021,01,13,13,32,19.70
2021,01,13,13,33,16.30
2021,01,13,13,34,19.90
2021,01,13,13,35,17.00
2021,01,13,13,36,19.00
2021,01,13,13,37,19.50
2021,01,13,13,38,16.60
2021,01,13,13,39,12.60
2021,01,13,13,40,15.70
2021,01,13,13,41,17.70
2021,01,13,13,42,24.20
2021,01,13,13,43,24.50
2021,01,13,13,44,24.00
2021,01,13,13,45,21.10
2021,01,13,13,46,19.40
2021,01,13,13,47,15.60
2021,01,13,13,48,17.90
2021,01,13,13,49,20.40
2021,01,13,13,50,15.70
2021,01,13,13,51,20.10
2021,01,13,13,52,17.20
2021,01,13,13,53,17.90
2021,01,13,13,54,18.90
2021,01,13,13,55,9.50
2021,01,13,13,56,22.10
2021,01,13,13,57,21.10
2021,01,13,13,58,16.00
2021,01,13,13,59,17.20
2021,01,13,14,00,12.80
2021,01,13,14,01,14.40
2021,01,13,14,02,16.60
2021,01,13,14,03,18.00
2021,01,13,14,04,16.20
2021,01,13,14,05,17.40
2021,01,13,14,06,4.20
2021,01,13,14,07,0.00
2021,01,13,14,08,0.00
2021,01,13,14,09,14.40
2021,01,13,14,10,16.00
2021,01,13,14,11,16.40
2021,01,13,14,12,8.40
2021,01,13,14,13,11.90
2021,01,13,14,14,20.10
2021,01,13,14,15,8.20
2021,01,13,14,16,2.60
2021,01,13,14,17,17.80
2021,01,13,14,18,18.90
2021,01,13,14,19,8.20
2021,01,13,14,20,12.30
2021,01,13,14,21,12.40
2021,01,13,14,22,12.70
2021,01,13,14,23,17.90
2021,01,13,14,24,15.20
2021,01,13,14,25,12.90
2021,01,13,14,26,16.00
2021,01,13,14,27,17.30
2021,01,13,14,28,13.70
2021,01,13,14,29,0.70
2021,01,13,14,30,12.40
2021,01,13,14,31,17.30
2021,01,13,14,32,20.00
2021,01,13,14,33,17.40
2021,01,13,14,34,19.40
2021,01,13,14,35,21.00
2021,01,13,14,36,13.30
2021,01,13,14,37,14.90
2021,01,13,14,38,11.00
2021,01,13,14,39,11.20
2021,01,13,14,40,12.90
2021,01,13,14,41,5.10
2021,01,13,14,42,0.00
2021,01,13,14,43,15.80
2021,01,13,14,44,15.40
2021,01,13,14,45,19.90
2021,01,13,14,46,15.70
2021,01,13,14,47,16.60
2021,01,13,14,48,16.40
2021,01,13,14,49,15.40
2021,01,13,14,50,14.90
2021,01,13,14,51,15.50
2021,01,13,14,52,22.20
2021,01,13,14,53,14.50
2021,01,13,14,54,14.40
2021,01,13,14,55,18.30
2021,01,13,14,56,14.80
2021,01,13,14,57,14.70
2021,01,13,14,58,25.10
2021,01,13,14,59,20.00
2021,01,13,15,00,14.20
2021,01,13,15,01,13.50
2021,01,13,15,02,15.20
2021,01,13,15,03,13.50
2021,01,13,15,04,20.10
2021,01,13,15,05,16.70
2021,01,13,15,06,13.70
2021,01,13,15,07,12.00
2021,01,13,15,08,8.30
2021,01,13,15,09,6.70
2021,01,13,15,10,12.20
2021,01,13,15,11,13.40
2021,01,13,15,12,13.30
2021,01,13,15,13,5.50
2021,01,13,15,14,10.90
2021,01,13,15,15,9.60
2021,01,13,15,16,14.40
2021,01,13,15,17,13.10
2021,01,13,15,18,10.30
2021,01,13,15,19,9.30
2021,01,13,15,20,6.90
2021,01,13,15,21,0.00
2021,01,13,15,22,0.60
2021,01,13,15,23,0.00
2021,01,13,15,24,0.00
2021,01,13,15,25,8.30
2021,01,13,15,26,15.10
2021,01,13,15,27,14.40
2021,01,13,15,28,13.50
2021,01,13,15,29,11.80
2021,01,13,15,30,13.20
2021,01,13,15,31,10.50
2021,01,13,15,32,9.00
2021,01,13,15,33,9.40
2021,01,13,15,34,7.10
2021,01,13,15,35,7.50
2021,01,13,15,36,6.40
2021,01,13,15,37,9.10
2021,01,13,15,38,6.60
2021,01,13,15,39,3.70
2021,01,13,15,40,4.70
2021,01,13,15,41,0.10
2021,01,13,15,42,0.00
2021,01,13,15,43,0.00
2021,01,13,15,44,0.00
2021,01,13,15,45,0.00
2021,01,13,15,46,5.70
2021,01,13,15,47,11.60
2021,01,13,15,48,3.20
2021,01,13,15,49,7.40
2021,01,13,15,50,4.10
2021,01,13,15,51,2.00
2021,01,13,15,52,9.90
2021,01,13,15,53,12.80
2021,01,13,15,54,8.90
2021,01,13,15,55,10.90
2021,01,13,15,56,15.40
2021,01,13,15,57,13.50
2021,01,13,15,58,15.40
2021,01,13,15,59,11.40
2021,01,13,16,00,7.80
2021,01,13,16,01,5.10
2021,01,13,16,02,4.30
2021,01,13,16,03,4.30
2021,01,13,16,04,14.00
2021,01,13,16,05,8.50
2021,01,13,16,06,7.30
2021,01,13,16,07,6.30
2021,01,13,16,08,2.50
2021,01,13,16,09,0.00
2021,01,13,16,10,2.40
2021,01,13,16,11,3.20
2021,01,13,16,12,4.20
2021,01,13,16,13,1.80
2021,01,13,16,14,4.20
2021,01,13,16,15,5.90
2021,01,13,16,16,5.10
2021,01,13,16,17,2.80
2021,01,13,16,18,0.00
2021,01,13,16,19,0.00
2021,01,13,16,20,0.00
2021,01,13,16,21,0.00
2021,01,13,16,22,1.40
2021,01,13,16,23,0.50
2021,01,13,16,24,0.00
2021,01,13,16,25,0.00
2021,01,13,16,26,0.00
2021,01,13,16,27,0.00
2021,01,13,16,28,0.00
2021,01,13,16,29,0.00
2021,01,13,16,30,0.00
2021,01,13,16,31,0.00
2021,01,13,16,32,0.00
2021,01,13,16,33,0.00
2021,01,13,16,34,1.70
2021,01,13,16,35,4.80
2021,01,13,16,36,2.20
2021,01,13,16,37,0.00
2021,01,13,16,38,0.00
2021,01,13,16,39,0.00
2021,01,13,16,40,0.70
2021,01,13,16,41,0.00
2021,01,13,16,42,0.00
2021,01,13,16,43,0.00
2021,01,13,16,44,0.00
2021,01,13,16,45,0.00
2021,01,13,16,46,0.00
2021,01,13,16,47,0.00
2021,01,13,16,48,0.00
2021,01,13,16,49,0.00
2021,01,13,16,50,0.00
2021,01,13,16,51,0.00
2021,01,13,16,52,0.00
2021,01,13,16,53,3.70
2021,01,13,16,54,3.40
2021,01,13,16,55,4.00
2021,01,13,16,56,0.10
2021,01,13,16,57,0.00
2021,01,13,16,58,0.00
2021,01,13,16,59,0.00
2021,01,13,17,00,0.00
2021,01,13,17,01,0.00
2021,01,13,17,02,0.00
2021,01,13,17,03,0.00
2021,01,13,17,04,0.00
2021,01,13,17,05,0.00
2021,01,13,17,06,0.00
2021,01,13,17,07,0.00
2021,01,13,17,08,0.00
2021,01,13,17,09,0.00
2021,01,13,17,10,0.00
2021,01,13,17,11,0.00
2021,01,13,17,12,3.20
2021,01,13,17,13,5.50
2021,01,13,17,14,7.10
2021,01,13,17,15,5.80
2021,01,13,17,16,3.20
2021,01,13,17,17,3.70
2021,01,13,17,18,3.70
2021,01,13,17,19,5.70
2021,01,13,17,20,2.50
2021,01,13,17,21,0.40
2021,01,13,17,22,2.00
2021,01,13,17,23,3.90
2021,01,13,17,24,4.30
2021,01,13,17,25,1.30
2021,01,13,17,26,0.00
2021,01,13,17,27,0.00
2021,01,13,17,28,0.00
2021,01,13,17,29,7.90
2021,01,13,17,30,7.20
2021,01,13,17,31,6.80
2021,01,13,17,32,5.70
2021,01,13,17,33,6.60
2021,01,13,17,34,8.20